Volver al catálogo

COSMOS 1823 DEB

ActivoLEO
NORAD 39822·DEBRIS·🇷🇺 Russia

Lanzado Feb 20, 1987 desde Plesetsk Cosmodrome

Loading…

Próximos Pases (próximas 24 horas)

TLE

ObsoletoSource: Space-Track

Época: Sep 7, 2026, 07:04 UTC

1 39822U 87020EW  26250.29507789  .00000218  00000-0  19047-2 0  9997
2 39822  73.9697 109.6610 0144308  45.9018 315.3792 12.30516545991198

Sigue COSMOS 1823 DEB en tiempo real con AllMySat

Download on the App Store